Time,TemperatureF,DewpointF,PressureIn,WindDirection,WindDirectionDegrees,WindSpeedMPH,WindSpeedGustMPH,Humidity,HourlyPrecipIn,Conditions,Clouds,dailyrainin,SolarRadiationWatts/m^2,SoftwareType,DateUTC
2013-11-15 00:02:00,32.0,30.0,-100.00,South,174,1.0,3.0,92,0.00,,,-99.99,0.000000,,2013-11-15 06:02:00,
2013-11-15 00:10:00,32.0,30.0,-100.00,SW,222,0.0,6.0,93,0.00,,,0.00,0.000000,,2013-11-15 06:10:00,
2013-11-15 00:44:00,32.0,30.0,-100.00,SW,222,0.0,6.0,93,0.00,,,0.00,0.000000,,2013-11-15 06:44:00,
2013-11-15 00:53:00,32.0,30.0,-100.00,SW,222,0.0,6.0,93,0.00,,,0.00,0.000000,,2013-11-15 06:53:00,
2013-11-15 01:01:00,32.0,30.0,-100.00,SW,222,0.0,6.0,93,0.00,,,0.00,0.000000,,2013-11-15 07:01:00,
2013-11-15 01:10:00,28.0,27.0,-100.00,South,190,0.0,2.0,96,0.00,,,0.00,0.000000,,2013-11-15 07:10:00,
2013-11-15 01:42:00,28.0,27.0,-100.00,South,190,0.0,2.0,96,0.00,,,0.00,0.000000,,2013-11-15 07:42:00,
2013-11-15 01:52:00,28.0,27.0,-100.00,South,190,0.0,2.0,96,0.00,,,0.00,0.000000,,2013-11-15 07:52:00,
2013-11-15 02:01:00,28.0,27.0,-100.00,South,190,0.0,2.0,96,0.00,,,0.00,0.000000,,2013-11-15 08:01:00,
2013-11-15 02:10:00,27.0,26.0,-100.00,SSW,198,0.0,1.0,97,0.00,,,0.00,0.000000,,2013-11-15 08:10:00,
2013-11-15 02:42:00,27.0,26.0,-100.00,SSW,198,0.0,1.0,97,0.00,,,0.00,0.000000,,2013-11-15 08:42:00,
2013-11-15 02:52:00,27.0,26.0,-100.00,SSW,198,0.0,1.0,97,0.00,,,0.00,0.000000,,2013-11-15 08:52:00,
2013-11-15 03:02:00,27.0,26.0,-100.00,SSW,198,0.0,1.0,97,0.00,,,0.00,0.000000,,2013-11-15 09:02:00,
2013-11-15 03:10:00,27.0,26.0,-100.00,SSW,209,0.0,2.0,97,0.00,,,0.00,0.000000,,2013-11-15 09:10:00,
2013-11-15 03:43:00,27.0,26.0,-100.00,SSW,209,0.0,2.0,97,0.00,,,0.00,0.000000,,2013-11-15 09:43:00,
2013-11-15 03:53:00,27.0,26.0,-100.00,SSW,209,0.0,2.0,97,0.00,,,0.00,0.000000,,2013-11-15 09:53:00,
2013-11-15 04:03:00,27.0,26.0,-100.00,SSW,209,0.0,2.0,97,0.00,,,0.00,0.000000,,2013-11-15 10:03:00,
2013-11-15 04:10:00,26.0,25.0,-100.00,NNW,341,0.0,1.0,97,0.00,,,0.00,0.000000,,2013-11-15 10:10:00,
2013-11-15 04:43:00,26.0,25.0,-100.00,NNW,341,0.0,1.0,97,0.00,,,0.00,0.000000,,2013-11-15 10:43:00,
2013-11-15 04:52:00,26.0,25.0,-100.00,NNW,341,0.0,1.0,97,0.00,,,0.00,0.000000,,2013-11-15 10:52:00,
2013-11-15 05:02:00,26.0,25.0,-100.00,NNW,341,0.0,1.0,97,0.00,,,0.00,0.000000,,2013-11-15 11:02:00,
2013-11-15 05:10:00,28.0,28.0,-100.00,SSW,203,0.0,1.0,98,0.00,,,0.00,0.000000,,2013-11-15 11:10:00,
2013-11-15 05:42:00,28.0,28.0,-100.00,SSW,203,0.0,1.0,98,0.00,,,0.00,0.000000,,2013-11-15 11:42:00,
2013-11-15 05:52:00,28.0,28.0,-100.00,SSW,203,0.0,1.0,98,0.00,,,0.00,0.000000,,2013-11-15 11:52:00,
2013-11-15 06:02:00,28.0,28.0,-100.00,SSW,203,0.0,1.0,98,0.00,,,0.00,0.000000,,2013-11-15 12:02:00,
2013-11-15 06:10:00,30.0,30.0,-100.00,SSW,207,1.0,4.0,99,0.00,,,0.00,0.000000,,2013-11-15 12:10:00,
2013-11-15 06:42:00,30.0,30.0,-100.00,SSW,207,1.0,4.0,99,0.00,,,0.00,0.000000,,2013-11-15 12:42:00,
2013-11-15 06:52:00,30.0,30.0,-100.00,SSW,207,1.0,4.0,99,0.00,,,0.00,0.000000,,2013-11-15 12:52:00,
2013-11-15 07:01:00,30.0,30.0,-100.00,SSW,207,1.0,4.0,99,0.00,,,0.00,0.000000,,2013-11-15 13:01:00,
2013-11-15 07:10:00,30.0,30.0,-100.00,South,181,2.0,5.0,99,0.00,,,0.00,1.000000,,2013-11-15 13:10:00,
2013-11-15 07:42:00,30.0,30.0,-100.00,South,181,2.0,5.0,99,0.00,,,0.00,1.000000,,2013-11-15 13:42:00,
2013-11-15 07:52:00,30.0,30.0,-100.00,South,181,2.0,5.0,99,0.00,,,0.00,1.000000,,2013-11-15 13:52:00,
2013-11-15 08:02:00,30.0,30.0,-100.00,South,181,2.0,5.0,99,0.00,,,0.00,1.000000,,2013-11-15 14:02:00,
2013-11-15 08:10:00,29.0,29.0,-100.00,South,187,0.0,5.0,98,0.00,,,0.00,25.000000,,2013-11-15 14:10:00,
2013-11-15 08:42:00,29.0,29.0,-100.00,South,187,0.0,5.0,98,0.00,,,0.00,25.000000,,2013-11-15 14:42:00,
2013-11-15 08:52:00,29.0,29.0,-100.00,South,187,0.0,5.0,98,0.00,,,0.00,25.000000,,2013-11-15 14:52:00,
2013-11-15 09:02:00,29.0,29.0,-100.00,South,187,0.0,5.0,98,0.00,,,0.00,25.000000,,2013-11-15 15:02:00,
2013-11-15 09:10:00,30.0,29.0,-100.00,SSW,212,2.0,6.0,98,0.00,,,0.00,66.000000,,2013-11-15 15:10:00,
2013-11-15 09:43:00,30.0,29.0,-100.00,SSW,212,2.0,6.0,98,0.00,,,0.00,66.000000,,2013-11-15 15:43:00,
2013-11-15 09:53:00,30.0,29.0,-100.00,SSW,212,2.0,6.0,98,0.00,,,0.00,66.000000,,2013-11-15 15:53:00,
2013-11-15 10:03:00,30.0,29.0,-100.00,SSW,212,2.0,6.0,98,0.00,,,0.00,66.000000,,2013-11-15 16:03:00,
2013-11-15 10:10:00,34.0,34.0,-100.00,SSW,197,1.0,4.0,98,0.00,,,0.00,94.000000,,2013-11-15 16:10:00,
2013-11-15 10:43:00,34.0,34.0,-100.00,SSW,197,1.0,4.0,98,0.00,,,0.00,94.000000,,2013-11-15 16:43:00,
2013-11-15 10:53:00,34.0,34.0,-100.00,SSW,197,1.0,4.0,98,0.00,,,0.00,94.000000,,2013-11-15 16:53:00,
2013-11-15 11:03:00,34.0,34.0,-100.00,SSW,197,1.0,4.0,98,0.00,,,0.00,94.000000,,2013-11-15 17:03:00,
2013-11-15 11:10:00,40.0,36.0,-100.00,SW,221,2.0,9.0,84,0.00,,,0.00,131.000000,,2013-11-15 17:10:00,
2013-11-15 11:42:00,40.0,36.0,-100.00,SW,221,2.0,9.0,84,0.00,,,0.00,131.000000,,2013-11-15 17:42:00,
2013-11-15 11:52:00,40.0,36.0,-100.00,SW,221,2.0,9.0,84,0.00,,,0.00,131.000000,,2013-11-15 17:52:00,
2013-11-15 12:02:00,40.0,36.0,-100.00,SW,221,2.0,9.0,84,0.00,,,0.00,131.000000,,2013-11-15 18:02:00,
2013-11-15 12:10:00,46.0,36.0,-100.00,SW,230,3.0,11.0,69,0.00,,,0.00,389.000000,,2013-11-15 18:10:00,
2013-11-15 12:42:00,46.0,36.0,-100.00,SW,230,3.0,11.0,69,0.00,,,0.00,389.000000,,2013-11-15 18:42:00,
2013-11-15 12:52:00,46.0,36.0,-100.00,SW,230,3.0,11.0,69,0.00,,,0.00,389.000000,,2013-11-15 18:52:00,
2013-11-15 13:02:00,46.0,36.0,-100.00,SW,230,3.0,11.0,69,0.00,,,0.00,389.000000,,2013-11-15 19:02:00,
2013-11-15 13:10:00,51.0,37.0,-100.00,SW,232,3.0,10.0,58,0.00,,,0.00,366.000000,,2013-11-15 19:10:00,
2013-11-15 13:42:00,51.0,37.0,-100.00,SW,232,3.0,10.0,58,0.00,,,0.00,366.000000,,2013-11-15 19:42:00,
2013-11-15 13:52:00,51.0,37.0,-100.00,SW,232,3.0,10.0,58,0.00,,,0.00,366.000000,,2013-11-15 19:52:00,
2013-11-15 14:01:00,51.0,37.0,-100.00,SW,232,3.0,10.0,58,0.00,,,0.00,366.000000,,2013-11-15 20:01:00,
2013-11-15 14:10:00,51.0,36.0,-100.00,SW,227,4.0,11.0,56,0.00,,,0.00,297.000000,,2013-11-15 20:10:00,
2013-11-15 14:42:00,51.0,36.0,-100.00,SW,227,4.0,11.0,56,0.00,,,0.00,297.000000,,2013-11-15 20:42:00,
2013-11-15 14:52:00,51.0,36.0,-100.00,SW,227,4.0,11.0,56,0.00,,,0.00,297.000000,,2013-11-15 20:52:00,
2013-11-15 15:02:00,51.0,36.0,-100.00,SW,227,4.0,11.0,56,0.00,,,0.00,297.000000,,2013-11-15 21:02:00,
2013-11-15 15:10:00,51.0,36.0,-100.00,SSW,212,3.0,11.0,57,0.00,,,0.00,190.000000,,2013-11-15 21:10:00,
2013-11-15 15:43:00,51.0,36.0,-100.00,SSW,212,3.0,11.0,57,0.00,,,0.00,190.000000,,2013-11-15 21:43:00,
2013-11-15 15:55:00,51.0,36.0,-100.00,SSW,212,3.0,11.0,57,0.00,,,0.00,190.000000,,2013-11-15 21:55:00,
2013-11-15 16:03:00,51.0,36.0,-100.00,SSW,212,3.0,11.0,57,0.00,,,0.00,190.000000,,2013-11-15 22:03:00,
2013-11-15 16:10:00,44.0,35.0,-100.00,SSW,203,0.0,7.0,71,0.00,,,0.00,41.000000,,2013-11-15 22:10:00,
2013-11-15 16:43:00,44.0,35.0,-100.00,SSW,203,0.0,7.0,71,0.00,,,0.00,41.000000,,2013-11-15 22:43:00,
2013-11-15 16:53:00,44.0,35.0,-100.00,SSW,203,0.0,7.0,71,0.00,,,0.00,41.000000,,2013-11-15 22:53:00,
2013-11-15 17:02:00,44.0,35.0,-100.00,SSW,203,0.0,7.0,71,0.00,,,0.00,41.000000,,2013-11-15 23:02:00,
2013-11-15 17:10:00,36.0,33.0,-100.00,SSW,207,0.0,1.0,89,0.00,,,0.00,2.000000,,2013-11-15 23:10:00,
2013-11-15 17:52:00,36.0,33.0,-100.00,SSW,207,0.0,1.0,89,0.00,,,0.00,2.000000,,2013-11-15 23:52:00,
2013-11-15 18:03:00,36.0,33.0,-100.00,SSW,207,0.0,1.0,89,0.00,,,0.00,2.000000,,2013-11-16 00:03:00,
2013-11-15 19:10:00,39.0,35.0,-100.00,South,176,2.0,7.0,84,-99.99,,,0.00,0.000000,,2013-11-16 01:10:00,
2013-11-15 19:42:00,39.0,35.0,-100.00,South,176,2.0,7.0,84,-99.99,,,0.00,0.000000,,2013-11-16 01:42:00,
2013-11-15 19:52:00,39.0,35.0,-100.00,South,176,2.0,7.0,84,-99.99,,,0.00,0.000000,,2013-11-16 01:52:00,
2013-11-15 20:02:00,39.0,35.0,-100.00,South,176,2.0,7.0,84,-99.99,,,0.00,0.000000,,2013-11-16 02:02:00,
2013-11-15 20:10:00,37.0,34.0,-100.00,SSE,168,1.0,7.0,87,0.00,,,0.00,0.000000,,2013-11-16 02:10:00,
2013-11-15 20:42:00,37.0,34.0,-100.00,SSE,168,1.0,7.0,87,0.00,,,0.00,0.000000,,2013-11-16 02:42:00,
2013-11-15 20:52:00,37.0,34.0,-100.00,SSE,168,1.0,7.0,87,0.00,,,0.00,0.000000,,2013-11-16 02:52:00,
2013-11-15 21:02:00,37.0,34.0,-100.00,SSE,168,1.0,7.0,87,0.00,,,0.00,0.000000,,2013-11-16 03:02:00,
2013-11-15 21:10:00,35.0,33.0,-100.00,SSE,161,0.0,5.0,91,0.00,,,0.00,0.000000,,2013-11-16 03:10:00,
2013-11-15 21:44:00,35.0,33.0,-100.00,SSE,161,0.0,5.0,91,0.00,,,0.00,0.000000,,2013-11-16 03:44:00,
2013-11-15 21:55:00,35.0,33.0,-100.00,SSE,161,0.0,5.0,91,0.00,,,0.00,0.000000,,2013-11-16 03:55:00,
2013-11-15 22:04:00,35.0,33.0,-100.00,SSE,161,0.0,5.0,91,0.00,,,0.00,0.000000,,2013-11-16 04:04:00,
2013-11-15 22:10:00,38.0,33.0,-100.00,South,185,2.0,9.0,82,0.00,,,0.00,0.000000,,2013-11-16 04:10:00,
2013-11-15 22:43:00,38.0,33.0,-100.00,South,185,2.0,9.0,82,0.00,,,0.00,0.000000,,2013-11-16 04:43:00,
2013-11-15 22:53:00,38.0,33.0,-100.00,South,185,2.0,9.0,82,0.00,,,0.00,0.000000,,2013-11-16 04:53:00,
2013-11-15 23:03:00,38.0,33.0,-100.00,South,185,2.0,9.0,82,0.00,,,0.00,0.000000,,2013-11-16 05:03:00,
2013-11-15 23:10:00,39.0,33.0,-100.00,SSE,167,2.0,7.0,80,0.00,,,0.00,0.000000,,2013-11-16 05:10:00,
2013-11-15 23:44:00,39.0,33.0,-100.00,SSE,167,2.0,7.0,80,0.00,,,0.00,0.000000,,2013-11-16 05:44:00,
2013-11-15 23:53:00,39.0,33.0,-100.00,SSE,167,2.0,7.0,80,0.00,,,0.00,0.000000,,2013-11-16 05:53:00,